Home > Weather > Rosenheim > Past weeks

Flag for Germany Past Weather in Rosenheim, Bavaria, Germany — Yesterday and Last 2 Weeks

Now
64 °F

Mild.


Feels Like: 64 °F
Forecast: 64 / 75 °F
Wind: No wind

Location: Kufstein

Current Time: Jul 26, 2016 at 4:45:08 AM

Latest Report: Jul 26, 2016 at 4:00 AM


Visibility: N/A

Pressure: 30.11 "Hg

Humidity: 93%

Dew Point: 62 °F

Location of RosenheimLocation

Past Weather in Rosenheim — Graph

°F

Rosenheim Temperature Yesterday

Maximum temperature yesterday: 78 °F (at 4:00 PM)
Minimum temperature yesterday: 65 °F (at 6:00 AM)
Average temperature yesterday: 69 °F

High & Low Weather Summary for the Past Weeks

 TemperatureHumidityPressure
High89 °F (Jul 11, 3:00 PM)97% (Jul 12, 11:00 PM)30.36 "Hg (Jul 12, 11:00 PM)
Low49 °F (Jul 14, 7:00 AM)38% (Jul 20, 6:00 PM)29.78 "Hg (Jul 11, 4:00 PM)
Average65 °F81%30.08 "Hg
* Reported Jul 11 3:00 AM — Jul 26 3:00 AM, Rosenheim, Weather by CustomWeather, © 2016

Note: Actual official high and low records may vary slightly from our data, if they occured in-between our weather recording intervals... More about our weather records

Advertising

Rosenheim Weather History for the Previous 24 Hours

Scroll right to see more
 ConditionsComfort  
Time TempWeatherWind HumidityBarometerVisibility
3:00 AM
Tue, Jul 26
64 °FMild.1 mph92%30.11 "HgN/A
2:00 AM65 °FMild.1 mph92%30.11 "HgN/A
1:00 AM64 °FMild.1 mph94%30.11 "HgN/A
12:00 AM65 °FMild.2 mph94%30.10 "HgN/A
11:00 PM
Mon, Jul 25
66 °FMild.2 mph92%30.11 "HgN/A
10:00 PM67 °FMild.1 mph89%30.10 "HgN/A
9:00 PM69 °FMild.1 mph85%30.08 "HgN/A
8:00 PM69 °FMild.2 mph82%30.07 "HgN/A
7:00 PM71 °FSprinkles. Cloudy.1 mph79%30.06 "HgN/A
6:00 PM74 °FMild.1 mph72%30.02 "HgN/A
5:00 PM74 °FMild.2 mph71%30.02 "HgN/A
4:00 PM78 °FWarm.2 mph55%30.01 "HgN/A
3:00 PM75 °FMild.1 mph60%30.01 "HgN/A
2:00 PM74 °FMild.2 mph69%30.03 "HgN/A
1:00 PM72 °FMild.3 mph78%30.05 "HgN/A
12:00 PM69 °FMild.3 mph80%30.07 "HgN/A
11:00 AM67 °FFog.2 mph91%30.09 "HgN/A
10:00 AM67 °FMild.1 mph87%30.08 "HgN/A
9:00 AM67 °FMild.1 mph88%30.08 "HgN/A
8:00 AM66 °FMild.No wind89%30.08 "HgN/A
7:00 AM65 °FMild.No wind92%30.08 "HgN/A
6:00 AM65 °FMild.2 mph91%30.08 "HgN/A
5:00 AM66 °FMild.1 mph88%30.07 "HgN/A
4:00 AM66 °FMild.1 mph88%30.08 "HgN/A
Weather by CustomWeather, © 2016

See weather overviewHow to use our weather pages